Lid_Strength_Index
0 -0 0 0 0 0 0 0 1 1 1 2 2 3 3 3 3 3 3 3 3 3 3 3 3 2 2 1 1 1 2 2 4 3 2 1 2 2 1 0 0 0 1
1 0 0 0 0 0 1 1 1 2 2 3 4 3 4 4 4 5 6 6 6 6 6 5 5 5 5 4 3 2 2 2 3 4 3 2 2 1 1 1 1 -0 0
1 1 0 1 1 1 1 1 2 3 4 4 4 4 5 5 6 6 6 6 6 6 6 6 6 6 6 5 4 3 2 2 2 3 3 2 2 1 2 1 1 1 0
2 2 2 1 1 1 2 2 3 3 4 4 5 5 6 6 5 5 6 6 5 5 5 5 6 6 6 6 5 5 4 4 3 3 3 3 2 2 2 3 3 2 2
3 3 2 1 1 2 3 3 3 3 4 5 6 6 5 5 5 6 6 6 6 6 5 5 5 5 4 5 5 6 6 6 5 4 4 3 3 3 4 3 3 3 2
4 3 3 2 3 3 3 3 4 4 5 5 5 5 5 5 7 7 6 6 5 5 6 6 5 5 5 5 5 5 5 6 7 6 4 4 4 3 2 3 3 4 5
4 3 3 3 4 4 4 4 5 5 5 5 5 5 6 6 7 7 6 5 5 5 5 5 5 5 4 5 5 5 5 5 5 4 5 4 3 2 2 3 3 3 4
5 4 4 4 5 5 5 6 6 6 6 6 5 5 6 5 7 8 7 6 5 5 5 5 5 5 5 5 5 5 4 4 3 3 3 2 1 1 1 2 2 3 2
6 6 6 7 6 6 7 7 6 6 6 5 5 5 5 5 6 7 7 5 5 4 4 4 4 5 6 7 5 6 5 4 3 4 5 6 7 6 5 2 3 4 5
8 8 8 8 7 8 7 6 6 6 6 5 5 4 5 4 6 7 7 5 6 5 4 4 5 5 6 7 6 6 6 5 4 3 3 3 4 3 5 2 2 4 4
9 9 9 9 8 8 6 7 6 6 6 6 5 4 4 4 4 8 8 7 6 6 6 5 4 7 8 8 8 6 6 5 4 3 3 2 1 1 1 2 1 2 3
10 11 11 10 9 7 7 7 6 6 6 6 6 6 4 5 7 8 10 10 9 9 8 6 4 7 9 9 8 8 9 8 6 3 4 3 3 2 2 1 1 1 1
12 12 12 11 9 9 8 7 7 6 7 7 7 7 7 8 8 10 11 11 10 9 8 7 8 8 9 8 9 9 9 7 5 4 4 4 2 2 1 1 1 1 1
13 13 13 12 11 9 8 8 8 7 7 7 7 8 9 10 10 10 11 10 8 7 7 6 7 8 8 7 6 7 7 4 3 3 3 3 2 2 2 2 2 2 3
12 14 14 13 11 10 10 10 10 9 9 9 8 9 11 12 12 12 12 11 9 8 9 7 5 6 6 6 5 4 4 3 3 2 3 3 3 2 3 2 2 2 3
12 13 14 14 13 12 11 11 12 12 11 11 11 11 11 12 12 12 12 12 11 10 6 5 5 5 5 5 4 3 3 3 2 2 3 3 3 3 3 3 2 3 4
12 12 13 14 14 14 13 12 13 12 11 11 11 12 13 13 13 12 12 12 10 7 4 4 5 5 4 4 4 4 4 3 2 3 2 3 3 3 4 3 3 3 4
11 13 11 11 12 13 14 13 13 14 14 13 11 12 13 13 13 12 12 10 8 7 7 6 4 5 4 4 4 4 4 4 3 3 3 4 4 3 3 3 3 3 4
10 10 9 8 9 10 11 12 12 12 14 14 13 12 12 12 13 13 13 12 12 10 8 7 6 6 5 4 4 5 4 5 4 3 3 3 3 4 4 3 3 6 5
9 11 10 8 9 9 9 9 10 11 11 13 14 14 13 12 14 14 14 14 13 12 10 10 7 6 6 6 6 3 4 5 4 4 3 3 3 3 4 3 4 3 3
9 9 10 9 9 10 9 10 10 10 10 11 12 13 15 13 14 14 14 15 14 13 12 11 9 8 8 7 7 8 8 9 6 2 3 2 3 4 3 3 3 3 3
9 10 10 11 10 10 10 10 10 11 10 11 11 12 13 13 13 14 14 15 14 13 13 12 11 10 10 8 10 10 12 12 10 7 3 2 2 3 3 2 2 3 3
10 10 11 11 11 11 11 11 11 11 11 11 11 11 12 12 13 14 13 14 14 14 13 13 12 11 10 8 10 11 14 15 12 10 9 3 2 2 2 2 3 3 3
10 11 12 12 12 12 12 12 12 12 11 11 11 11 11 11 12 12 14 13 13 13 13 13 13 13 11 11 11 12 13 15 13 13 11 6 3 3 2 2 2 3 3
10 11 11 12 13 13 13 13 13 13 12 12 12 12 11 11 12 12 12 13 13 13 13 13 13 13 12 12 13 14 15 15 15 15 13 8 2 2 2 2 2 2 2
10 10 11 11 13 13 14 14 14 14 14 13 13 13 12 12 12 13 12 12 13 13 12 13 13 13 13 13 14 15 15 15 15 15 13 5 3 2 2 2 2 2 2